Torna al catalogo

STARLINK-31373

AttivoComunicazioniVLEO
NORAD 58965·PAYLOAD·🇺🇸 United States

Lanciato Feb 15, 2024 da Vandenberg Space Force Base

Loading…

Prossimi Passaggi (prossime 24 ore)

TLE

AggiornatoSource: CelesTrak SupGP

Epoca: Sep 14, 2026, 21:10 UTC

1 58965C 24031A   26257.88243056 -.00048055  00000+0 -14197-2 0  2575
2 58965  53.1564 135.6998 0001359  98.6430 155.7772 15.34417491    12

Traccia STARLINK-31373 in tempo reale con AllMySat

Download on the App Store